Regional Weather Roundup
Issued by NWS

Home | Current Version | Previous Version | Text Only | Print | Product List | Glossary On
Versions: 1 2 3 4 5 6 7 8 9 10 11 12 13 14 15 16 17 18 19 20 21 22 23 24 25 26 27 28 29 30 31 32 33 34 35 36 37 38 39 40 41 42 43 44 45 46 47 48 49 50
000
ASUS44 KOUN 201610
RWROK

WEATHER ROUNDUP FOR OKLAHOMA
NATIONAL WEATHER SERVICE NORMAN OK
1100 AM CDT WED AUG 20 2014

NOTE: "FAIR" INDICATES FEW OR NO CLOUDS BELOW 12,000 FEET WITH NO
      SIGNIFICANT WEATHER AND/OR OBSTRUCTIONS TO VISIBILITY.

OKZ001>007-009>012-014-015-017-201700-
NORTHWEST OKLAHOMA AND THE PANHANDLE

CITY           SKY/WX    TMP DP  RH WIND       PRES   REMARKS
GAGE           SUNNY     89  65  44 S18G29    29.88S HX  91
ENID/WOODRING  MOSUNNY   90  70  51 S21G30    29.88S HX  95
$$

OKZ016-021>023-033>039-044-045-201700-
SOUTHWEST OKLAHOMA

CITY           SKY/WX    TMP DP  RH WIND       PRES   REMARKS
LAWTON/REGL    SUNNY     90  60  36 S20G26    29.93R
LAWTON/FT SILL SUNNY     89  63  41 S14G24    29.92S HX  90
FREDERICK      SUNNY     89  66  46 SW23      29.89S HX  91
CLINTON        SUNNY     87  66  49 S22       29.93R
HOBART         SUNNY     88  67  49 SW23G31   29.92R HX  91
ALTUS AFB      SUNNY     88  69  52 S17G25    29.91S HX  92
$$

OKZ018>020-024>031-201700-
CENTRAL OKLAHOMA

CITY           SKY/WX    TMP DP  RH WIND       PRES   REMARKS
OKLAHOMA CITY  SUNNY     87  67  51 S20       29.93S HX  90
OKC/WILEY POST SUNNY     87  68  52 S18G25    29.93S HX  90
OKC/TINKER AFB SUNNY     85  67  54 S23G29    29.94S
STILLWATER     MOSUNNY   86  69  56 S17G24    29.91S HX  90
GUTHRIE        SUNNY     87  70  56 S15       29.91S HX  92
$$

OKZ008-013-054>072-201700-
NORTHEAST OKLAHOMA

CITY           SKY/WX    TMP DP  RH WIND       PRES   REMARKS
TULSA          PTSUNNY   88  68  51 S17G25    29.92R HX  91
TULSA/JONES    PTSUNNY   85  68  56 S17       29.94R
PONCA CITY     MOSUNNY   86  69  56 S10G20    29.89S HX  90
BARTLESVILLE   MOSUNNY   85  71  63 S14G22    29.93R HX  90
MUSKOGEE       MOSUNNY   83  70  64 S9        29.99R
$$

OKZ032-040>043-046>053-073>077-201700-
SOUTH CENTRAL/SOUTHEAST OKLAHOMA

CITY           SKY/WX    TMP DP  RH WIND       PRES   REMARKS
ARDMORE/DWNTWN MOSUNNY   82  64  54 SW8       29.97S
MCALESTER      SUNNY     87  71  58 SW16G23   29.99S HX  93
$$




USA.gov is the U.S. government's official web portal to all federal, state and local government web resources and services.